TimeEDT,TemperatureF,Dew PointF,Humidity,Sea Level PressureIn,VisibilityMPH,Wind Direction,Wind SpeedMPH,Gust SpeedMPH,PrecipitationIn,Events,Conditions,WindDirDegrees,DateUTC
12:35 AM,72.0,69.1,91,29.84,8.0,NNE,4.6,-,N/A,,Overcast,30,2014-08-19 04:35:00
12:53 AM,72.0,69.1,91,29.82,8.0,NE,6.9,-,N/A,,Overcast,40,2014-08-19 04:53:00
1:22 AM,72.0,69.1,91,29.83,8.0,NNE,5.8,-,N/A,,Overcast,30,2014-08-19 05:22:00
1:33 AM,72.0,69.1,91,29.83,7.0,North,3.5,-,N/A,,Overcast,10,2014-08-19 05:33:00
1:53 AM,71.1,69.1,93,29.81,7.0,Calm,Calm,-,N/A,,Scattered Clouds,0,2014-08-19 05:53:00
2:04 AM,71.1,69.1,93,29.82,6.0,North,3.5,-,N/A,,Mostly Cloudy,10,2014-08-19 06:04:00
2:16 AM,71.1,69.1,93,29.82,7.0,Variable,3.5,-,N/A,,Mostly Cloudy,0,2014-08-19 06:16:00
2:39 AM,71.1,68.0,90,29.82,6.0,North,3.5,-,N/A,,Overcast,360,2014-08-19 06:39:00
2:53 AM,70.0,68.0,93,29.80,6.0,Calm,Calm,-,N/A,,Mostly Cloudy,0,2014-08-19 06:53:00
3:21 AM,70.0,68.0,93,29.81,5.0,Calm,Calm,-,N/A,,Mostly Cloudy,0,2014-08-19 07:21:00
3:53 AM,70.0,68.0,93,29.79,6.0,North,4.6,-,N/A,,Overcast,350,2014-08-19 07:53:00
5:42 AM,70.0,68.0,93,29.81,7.0,Calm,Calm,-,N/A,,Scattered Clouds,0,2014-08-19 09:42:00
5:53 AM,70.0,66.9,90,29.80,6.0,Calm,Calm,-,N/A,,Scattered Clouds,0,2014-08-19 09:53:00
6:12 AM,69.1,66.9,93,29.82,8.0,NNE,5.8,-,N/A,,Mostly Cloudy,30,2014-08-19 10:12:00
6:39 AM,69.1,66.9,93,29.83,3.0,NNE,3.5,-,N/A,,Overcast,30,2014-08-19 10:39:00
6:53 AM,70.0,68.0,93,29.82,4.0,Calm,Calm,-,N/A,,Overcast,0,2014-08-19 10:53:00
7:53 AM,71.1,68.0,90,29.84,5.0,North,4.6,-,N/A,,Overcast,360,2014-08-19 11:53:00
8:53 AM,72.0,68.0,87,29.86,5.0,North,3.5,-,N/A,,Overcast,10,2014-08-19 12:53:00
9:53 AM,73.0,69.1,87,29.86,4.0,NE,4.6,-,N/A,,Overcast,50,2014-08-19 13:53:00
10:39 AM,73.9,69.1,85,29.89,6.0,NNE,6.9,-,N/A,,Haze,20,2014-08-19 14:39:00
10:53 AM,75.0,69.1,82,29.87,5.0,NNE,6.9,-,N/A,,Haze,20,2014-08-19 14:53:00
11:45 AM,75.9,69.1,79,29.89,10.0,NNE,4.6,-,N/A,,Overcast,20,2014-08-19 15:45:00
11:53 AM,77.0,69.1,76,29.87,8.0,NNE,4.6,-,N/A,,Overcast,20,2014-08-19 15:53:00
12:53 PM,78.1,69.1,74,29.87,4.0,ENE,6.9,-,N/A,,Haze,60,2014-08-19 16:53:00
1:53 PM,79.0,69.1,72,29.87,4.0,Variable,5.8,-,N/A,,Haze,0,2014-08-19 17:53:00
2:50 PM,80.6,69.8,70,29.87,6.0,NNW,4.6,-,N/A,,Haze,330,2014-08-19 18:50:00
2:53 PM,80.1,70.0,71,29.85,6.0,NNW,4.6,-,N/A,,Haze,340,2014-08-19 18:53:00
3:07 PM,81.0,69.1,67,29.86,10.0,Variable,4.6,-,N/A,,Mostly Cloudy,0,2014-08-19 19:07:00
3:53 PM,82.0,68.0,62,29.83,10.0,Variable,4.6,-,N/A,,Partly Cloudy,0,2014-08-19 19:53:00
4:53 PM,81.0,66.9,62,29.84,10.0,NE,4.6,-,N/A,,Scattered Clouds,40,2014-08-19 20:53:00
5:53 PM,82.0,66.9,60,29.84,10.0,East,8.1,-,N/A,,Clear,80,2014-08-19 21:53:00
6:53 PM,79.0,68.0,69,29.84,10.0,East,3.5,-,N/A,,Partly Cloudy,80,2014-08-19 22:53:00
7:53 PM,78.1,69.1,74,29.86,10.0,ESE,6.9,-,N/A,,Overcast,110,2014-08-19 23:53:00
8:08 PM,77.0,70.0,79,29.89,10.0,ESE,5.8,-,N/A,,Scattered Clouds,110,2014-08-20 00:08:00
8:53 PM,75.0,70.0,84,29.88,10.0,South,4.6,-,N/A,,Mostly Cloudy,170,2014-08-20 00:53:00
9:53 PM,73.9,70.0,87,29.90,10.0,Calm,Calm,-,N/A,,Mostly Cloudy,0,2014-08-20 01:53:00
10:53 PM,72.0,69.1,91,29.91,10.0,Calm,Calm,-,N/A,,Scattered Clouds,0,2014-08-20 02:53:00
11:53 PM,72.0,70.0,93,29.92,10.0,Calm,Calm,-,N/A,,Overcast,0,2014-08-20 03:53:00